Location: Newark
(41.0400°S, 62.7845°W)
Time: 00:27:53
(UTC+00:00)

Vanguard 2 - Pass Details

Date: 08 December 2021
Orbit: 554 x 2935 km, 32.9° (Epoch: 27 January)

Event Time Altitude Azimuth Distance (km) Brightness Sun altitude
Rises 03:40:23 0° 300° (WNW) 6,456 12.0 -26.0°
Reaches altitude 10° 03:44:32 10° 303° (WNW) 5,604 11.6 -26.1°
Maximum altitude 04:01:40 57° 15° (NNE) 3,225 10.2 -26.2°
Drops below altitude 10° 04:16:41 10° 88° (E) 4,988 11.7 -26.1°
Sets 04:20:07 0° 91° (E) 5,736 12.1 -26.1°
